Hourly Data Report for October 02, 2013

All times are specified in Local Standard Time (LST). Add 1 hour to adjust for Daylight Saving Time where and when it is observed.

PENTICTON A
BRITISH COLUMBIA

49°27'45.000" N
119°36'08.000" W
344.40 m
1126146
71889
YYF

Download Data

Hourly Data (October 2013)
Hourly Data Report for October 2, 2013
Temp Definition
°C
Dew Point Temp Definition
°C
Rel Hum Definition
%
Wind Dir Definition
10's deg

Wind Spd Definition
km/h
Visibility Definition
km
Stn Press Definition
kPa
Hmdx Definition


Wind Chill Definition


Weather Definition


TIME
00:00 Legend Double Dagger 4.7 3.4 91 4 2 24.1 97.82     LegendNANA
01:00 Legend Double Dagger 4.6 3.1 90   0 24.1 97.86     Cloudy
02:00 Legend Double Dagger 4.4 3.2 92 36 4 24.1 97.88     LegendNANA
03:00 Legend Double Dagger 3.8 2.5 91 5 4 24.1 97.88     LegendNANA
04:00 Legend Double Dagger 2.8 1.8 93 7 4 24.1 97.89     Cloudy
05:00 Legend Double Dagger 3.9 2.9 93 34 4 24.1 97.90     LegendNANA
06:00 Legend Double Dagger 4.8 3.3 90 3 7 24.1 97.92     LegendNANA
07:00 Legend Double Dagger 5.7 4.4 91 4 4 24.1 97.93     Cloudy
08:00 Legend Double Dagger 7.1 5.1 87 3 3 24.1 97.94     LegendNANA
09:00 Legend Double Dagger 8.6 5.2 79 16 9 24.1 97.94     LegendNANA
10:00 Legend Double Dagger 8.5 4.9 78 17 16 24.1 97.92     Rain Showers
11:00 Legend Double Dagger 9.9 5.1 72 15 12 24.1 97.88     LegendNANA
12:00 Legend Double Dagger 11.6 5.9 68 18 15 24.1 97.84     LegendNANA
13:00 Legend Double Dagger 11.2 4.5 63 18 17 24.1 97.80     Cloudy
14:00 Legend Double Dagger 10.8 4.7 66 16 17 24.1 97.80     LegendNANA
15:00 Legend Double Dagger 9.9 4.3 68 16 18 24.1 97.83     Rain Showers
16:00 Legend Double Dagger 8.9 5.3 78 16 13 24.1 97.87     Rain Showers
17:00 Legend Double Dagger 8.6 5.4 80 17 13 24.1 97.89     Rain Showers
18:00 Legend Double Dagger 8.3 6.3 87 17 13 24.1 97.92     Rain Showers
19:00 Legend Double Dagger 8.0 6.1 88 18 9 24.1 97.95     Cloudy
20:00 Legend Double Dagger 7.9 5.6 85 24 4 24.1 98.00     Rain Showers
21:00 Legend Double Dagger 6.7 5.8 94 36 9 24.1 98.02     LegendNANA
22:00 Legend Double Dagger 7.0 6.1 94 34 8 24.1 98.06     Mostly Cloudy
23:00 Legend Double Dagger 6.2 5.3 94 1 9 24.1 98.08     LegendNANA

Notes on Data Quality.

Legend

  • E = Estimated
  • M = Missing
  • NA = Not Available
  • ‡ = Partner data that is not subject to review by the National Climate Archives
Date modified: